Location: Gälforsberget
(66.6500°N, 22.4167°E)
Time: 01:53:23
(UTC+00:00)

SWAS - Pass Details

Date: 11 April 2026
Orbit: 532 x 544 km, 69.9° (Epoch: 20 May)

Event Time Altitude Azimuth Distance (km) Brightness Sun altitude
Rises 19:49:08 0° 300° (WNW) 2,709 9.4 -9.3°
Reaches altitude 10° 19:51:19 10° 300° (WNW) 1,817 8.3 -9.4°
Maximum altitude 19:55:23 89° 211° (SSW) 553 4.3 -9.7°
Enters shadow 19:59:03 13° 122° (ESE) 1,656 6.2 -9.9°
